#timestamp,LO_Frequency,Hit,StdDev 
1669510815.6,286047003.5,N
1669510835.4,286047004.1,N
1669510855.3,286047004.3,N
1669510875.1,286047002.5,N
1669510895.8,286047002.5,N
1669510915.7,286047002.3,N
1669510935.5,286047001.4,N
1669510955.4,286046999.7,N
1669510975.2,286047002.6,N
1669510995.0,286047002.2,N
1669510995.9,286047002.2,N
1669511015.8,286047001.6,N
1669511035.6,286047002.3,N
1669511055.5,286047001.6,N
1669511075.3,286047003.8,Y
1669511095.1,286047000.1,P
1669511115.9,286047002.2,N
1669511135.7,286047001.3,N
1669511155.6,286047002.1,N
1669511175.4,286047000.4,N
1669511195.2,286047000.6,N
1669511215.1,286047002.6,Y
1669511216.0,286047002.6,P
1669511235.8,286047000.5,N
1669511255.7,286047000.8,N
1669511275.5,286046998.5,N
1669511295.3,286046998.3,N
1669511315.2,286047000.5,N
1669511335.0,286047000.2,N
1669511335.9,286047000.2,N
1669511355.7,286046999.7,N
1669511375.6,286046999.7,N
1669511395.4,286046999.7,N
1669511415.3,286047000.6,N
1669511435.1,286047000.8,N
1669511436.0,286047000.8,N
1669511455.8,286047000.1,N
1669511475.7,286046998.8,N
1669511495.5,286047000.9,N
1669511515.3,286047000.0,N
1669511535.2,286047002.4,N
1669511555.0,286047003.9,Y
1669511555.9,286047003.9,P
1669511575.8,286047001.6,N
1669511595.6,286047002.1,N
1669511615.4,286047003.6,N
1669511635.3,286047001.6,N
1669511655.1,286047002.6,N
1669511675.8,286047001.6,N
1669511695.7,286047001.6,N
1669511715.5,286047000.2,N
1669511735.4,286047000.6,N
1669511755.2,286046998.8,N
1669511775.0,286046996.6,N
1669511775.9,286046996.6,N
1669511795.8,286047001.1,N
1669511815.6,286047000.3,N
1669511835.4,286047002.6,N
1669511855.3,286047000.2,N
1669511875.1,286046999.7,N
1669511895.9,286046999.7,N
1669511915.7,286046999.7,N
1669511935.5,286047002.7,N
1669511955.4,286047002.4,N
1669511975.2,286047002.5,N
1669511995.0,286047002.0,N
1669511995.9,286047002.0,N
1669512015.8,286047002.2,N
1669512035.6,286047002.0,N
1669512055.5,286047001.8,N
1669512075.3,286047001.9,N
1669512095.1,286047004.3,N
1669512115.9,286047004.3,N
1669512135.7,286047003.0,N
1669512155.6,286047005.6,Y
1669512175.4,286047003.7,P
1669512195.4,286047003.8,P
1669512215.3,286047003.5,P
1669512235.1,286047005.3,Y
1669512255.9,286047000.5,P
1669512275.7,286047000.8,N
1669512295.6,286047000.5,N
1669512315.4,286047000.8,N
1669512335.2,286047001.2,N
1669512355.1,286047000.3,N
1669512356.0,286047000.3,N
1669512375.8,286046999.8,N
1669512395.7,286047000.4,N
1669512415.5,286046997.2,Y
1669512435.3,286046997.2,P
1669512455.2,286046997.0,N
1669512475.0,286046999.4,N
1669512475.9,286046999.4,N
1669512495.7,286047000.8,N
1669512515.6,286047001.0,N
1669512535.4,286047000.0,N
1669512555.3,286047000.5,N
1669512575.1,286047000.2,N
1669512576.0,286047000.2,N
1669512595.8,286047000.0,N
1669512615.7,286046999.8,N
1669512635.5,286047000.5,N
1669512655.4,286047002.8,N
1669512675.2,286046999.9,N
1669512695.0,286046999.7,N
1669512695.9,286046999.7,N
1669512715.8,286046999.9,N
1669512735.6,286047001.1,N
1669512755.4,286047001.1,N
1669512775.3,286047002.6,N
1669512795.1,286047000.3,N
1669512815.9,286046998.6,N
1669512835.7,286047000.0,N
1669512855.5,286047000.4,N
1669512875.4,286047002.8,N
1669512895.2,286047000.8,N
1669512915.0,286047000.4,N
1669512915.9,286047000.4,N
1669512935.8,286047000.3,N
1669512955.6,286047000.4,N
1669512975.5,286046998.2,N
1669512995.3,286046998.6,N
1669513015.1,286047000.8,N
1669513035.9,286047000.0,N
1669513055.7,286047000.9,N
1669513075.5,286046999.4,N
1669513095.4,286046998.9,N
1669513115.2,286046998.8,N
1669513135.1,286046998.4,N
1669513136.0,286046998.4,N
1669513155.8,286046998.4,N
1669513175.6,286047001.1,N
1669513195.5,286047000.7,N
1669513215.3,286047001.2,N
1669513235.1,286046996.6,N
1669513255.9,286046998.7,N
1669513275.7,286046998.1,N
1669513295.6,286047000.2,N
1669513315.4,286047000.8,N
1669513335.2,286047000.9,N
1669513355.1,286047000.0,N
1669513356.0,286047000.0,N
1669513375.8,286047000.6,N
1669513395.6,286047001.0,N
1669513415.5,286047000.6,N
1669513435.3,286047000.4,N
1669513455.2,286046998.4,N
1669513475.0,286047000.3,N
1669513475.9,286047000.3,N
1669513495.7,286047000.6,N
1669513515.6,286047000.5,N
1669513535.4,286046999.9,N
1669513555.3,286046998.5,N
1669513575.1,286046998.3,N
1669513576.0,286046998.3,N
1669513595.8,286047001.1,N
1669513615.7,286047000.7,N
1669513635.5,286047000.1,N
1669513655.4,286047002.0,N
1669513675.2,286046999.8,N
1669513695.0,286047003.4,N
1669513695.9,286047003.4,N
1669513715.8,286047004.3,N
1669513735.6,286047000.6,N
1669513755.4,286046999.5,N
1669513775.3,286046999.6,N
1669513795.1,286047001.1,N
1669513815.9,286047000.6,N
1669513835.7,286046999.9,N
1669513855.5,286047001.0,N
1669513875.4,286046999.8,N
1669513895.2,286047001.0,N
1669513915.1,286046999.8,N
1669513916.0,286046999.8,N
1669513935.8,286046999.7,N
1669513955.6,286047001.6,N
1669513975.6,286047001.4,N
1669513995.4,286047002.8,N
1669514015.2,286047002.2,N
1669514035.1,286047001.9,N
1669514036.0,286047001.9,N
1669514055.8,286047002.2,N
1669514075.6,286047000.6,N
1669514095.5,286047002.3,N
1669514115.3,286047002.4,N
1669514135.2,286046999.9,N
1669514155.9,286047002.7,N
1669514175.7,286046996.9,N
1669514195.6,286046998.9,N
1669514215.4,286046998.8,N
1669514235.2,286047002.5,N
1669514255.1,286047002.8,N
1669514256.0,286047002.8,N
1669514275.8,286047003.6,N
1669514295.7,286047002.9,N
1669514315.5,286047004.3,N
1669514335.3,286047004.0,N
1669514355.2,286047001.3,N
1669514375.0,286047000.2,N
1669514375.9,286047000.2,N
1669514395.8,286046999.9,N
